Year,Month,Day,Hour,Minute,Value (Times are PST for windgust in km/hr)
2013,10,02,00,01,1.60
2013,10,02,00,02,1.60
2013,10,02,00,03,1.60
2013,10,02,00,04,1.60
2013,10,02,00,05,3.20
2013,10,02,00,06,1.60
2013,10,02,00,07,1.60
2013,10,02,00,08,3.20
2013,10,02,00,09,3.20
2013,10,02,00,10,4.80
2013,10,02,00,11,4.80
2013,10,02,00,12,4.80
2013,10,02,00,13,4.80
2013,10,02,00,14,4.80
2013,10,02,00,15,3.20
2013,10,02,00,16,1.60
2013,10,02,00,17,3.20
2013,10,02,00,18,4.80
2013,10,02,00,19,1.60
2013,10,02,00,20,3.20
2013,10,02,00,21,1.60
2013,10,02,00,22,4.80
2013,10,02,00,23,3.20
2013,10,02,00,24,1.60
2013,10,02,00,25,3.20
2013,10,02,00,26,1.60
2013,10,02,00,28,1.60
2013,10,02,00,29,1.60
2013,10,02,00,30,1.60
2013,10,02,00,31,1.60
2013,10,02,00,32,1.60
2013,10,02,00,33,1.60
2013,10,02,00,34,3.20
2013,10,02,00,35,1.60
2013,10,02,00,36,1.60
2013,10,02,00,37,1.60
2013,10,02,00,38,1.60
2013,10,02,00,48,3.20
2013,10,02,00,49,3.20
2013,10,02,00,50,3.20
2013,10,02,00,51,3.20
2013,10,02,00,52,3.20
2013,10,02,00,53,3.20
2013,10,02,00,54,3.20
2013,10,02,00,55,1.60
2013,10,02,00,56,1.60
2013,10,02,00,57,1.60
2013,10,02,00,59,1.60
2013,10,02,01,01,1.60
2013,10,02,01,02,1.60
2013,10,02,01,03,1.60
2013,10,02,01,05,1.60
2013,10,02,01,06,1.60
2013,10,02,01,07,1.60
2013,10,02,01,08,1.60
2013,10,02,01,09,1.60
2013,10,02,01,11,1.60
2013,10,02,01,12,3.20
2013,10,02,01,13,3.20
2013,10,02,01,14,3.20
2013,10,02,01,15,1.60
2013,10,02,01,16,1.60
2013,10,02,01,17,1.60
2013,10,02,01,20,1.60
2013,10,02,01,30,1.60
2013,10,02,01,31,1.60
2013,10,02,01,32,1.60
2013,10,02,01,33,1.60
2013,10,02,01,34,1.60
2013,10,02,01,35,1.60
2013,10,02,01,36,1.60
2013,10,02,01,37,1.60
2013,10,02,01,38,3.20
2013,10,02,01,39,1.60
2013,10,02,01,43,1.60
2013,10,02,01,44,1.60
2013,10,02,01,49,1.60
2013,10,02,01,50,3.20
2013,10,02,01,51,1.60
2013,10,02,01,52,1.60
2013,10,02,01,53,1.60
2013,10,02,01,54,1.60
2013,10,02,01,55,1.60
2013,10,02,01,56,1.60
2013,10,02,01,57,3.20
2013,10,02,01,58,1.60
2013,10,02,01,59,1.60
2013,10,02,02,00,3.20
2013,10,02,02,01,3.20
2013,10,02,02,02,3.20
2013,10,02,02,03,4.80
2013,10,02,02,04,3.20
2013,10,02,02,05,3.20
2013,10,02,02,06,1.60
2013,10,02,02,07,3.20
2013,10,02,02,08,1.60
2013,10,02,02,09,1.60
2013,10,02,02,10,1.60
2013,10,02,02,11,1.60
2013,10,02,02,12,1.60
2013,10,02,02,13,1.60
2013,10,02,02,15,1.60
2013,10,02,02,16,1.60
2013,10,02,02,17,1.60
2013,10,02,02,18,1.60
2013,10,02,02,19,1.60
2013,10,02,02,20,1.60
2013,10,02,02,21,1.60
2013,10,02,02,22,1.60
2013,10,02,02,23,1.60
2013,10,02,02,24,1.60
2013,10,02,02,25,1.60
2013,10,02,02,26,1.60
2013,10,02,02,27,1.60
2013,10,02,02,28,1.60
2013,10,02,02,29,1.60
2013,10,02,02,30,1.60
2013,10,02,02,31,3.20
2013,10,02,02,32,1.60
2013,10,02,02,33,1.60
2013,10,02,02,34,1.60
2013,10,02,02,35,1.60
2013,10,02,02,36,1.60
2013,10,02,02,37,1.60
2013,10,02,02,38,3.20
2013,10,02,02,39,1.60
2013,10,02,02,40,1.60
2013,10,02,02,41,1.60
2013,10,02,02,42,3.20
2013,10,02,02,43,1.60
2013,10,02,02,44,3.20
2013,10,02,02,45,6.40
2013,10,02,02,46,4.80
2013,10,02,02,47,6.40
2013,10,02,02,48,4.80
2013,10,02,02,49,4.80
2013,10,02,02,50,6.40
2013,10,02,02,51,4.80
2013,10,02,02,52,4.80
2013,10,02,02,53,3.20
2013,10,02,02,54,3.20
2013,10,02,02,55,3.20
2013,10,02,02,56,4.80
2013,10,02,02,57,3.20
2013,10,02,02,58,1.60
2013,10,02,02,59,3.20
2013,10,02,03,00,11.30
2013,10,02,03,01,6.40
2013,10,02,03,02,4.80
2013,10,02,03,03,3.20
2013,10,02,03,04,4.80
2013,10,02,03,05,3.20
2013,10,02,03,06,4.80
2013,10,02,03,07,3.20
2013,10,02,03,08,6.40
2013,10,02,03,09,8.10
2013,10,02,03,10,4.80
2013,10,02,03,11,6.40
2013,10,02,03,12,6.40
2013,10,02,03,13,4.80
2013,10,02,03,14,4.80
2013,10,02,03,15,6.40
2013,10,02,03,16,3.20
2013,10,02,03,17,4.80
2013,10,02,03,18,4.80
2013,10,02,03,19,8.10
2013,10,02,03,20,8.10
2013,10,02,03,21,6.40
2013,10,02,03,22,4.80
2013,10,02,03,23,3.20
2013,10,02,03,24,3.20
2013,10,02,03,25,3.20
2013,10,02,03,26,3.20
2013,10,02,03,27,3.20
2013,10,02,03,28,3.20
2013,10,02,03,29,3.20
2013,10,02,03,30,4.80
2013,10,02,03,31,4.80
2013,10,02,03,32,3.20
2013,10,02,03,33,3.20
2013,10,02,03,34,1.60
2013,10,02,03,36,3.20
2013,10,02,03,37,4.80
2013,10,02,03,38,3.20
2013,10,02,03,39,1.60
2013,10,02,03,40,1.60
2013,10,02,03,41,1.60
2013,10,02,03,42,1.60
2013,10,02,03,43,4.80
2013,10,02,03,44,4.80
2013,10,02,03,45,6.40
2013,10,02,03,46,3.20
2013,10,02,03,47,3.20
2013,10,02,03,48,4.80
2013,10,02,03,49,4.80
2013,10,02,03,50,4.80
2013,10,02,03,51,3.20
2013,10,02,03,52,6.40
2013,10,02,03,53,3.20
2013,10,02,03,54,4.80
2013,10,02,03,55,4.80
2013,10,02,03,56,6.40
2013,10,02,03,57,4.80
2013,10,02,03,58,4.80
2013,10,02,03,59,4.80
2013,10,02,04,00,4.80
2013,10,02,04,01,4.80
2013,10,02,04,02,3.20
2013,10,02,04,03,3.20
2013,10,02,04,04,3.20
2013,10,02,04,05,3.20
2013,10,02,04,06,3.20
2013,10,02,04,07,3.20
2013,10,02,04,08,4.80
2013,10,02,04,09,3.20
2013,10,02,04,10,3.20
2013,10,02,04,11,3.20
2013,10,02,04,12,3.20
2013,10,02,04,13,3.20
2013,10,02,04,14,1.60
2013,10,02,04,15,1.60
2013,10,02,04,16,1.60
2013,10,02,04,17,1.60
2013,10,02,04,18,1.60
2013,10,02,04,19,1.60
2013,10,02,04,21,1.60
2013,10,02,04,22,1.60
2013,10,02,04,26,1.60
2013,10,02,04,27,3.20
2013,10,02,04,28,3.20
2013,10,02,04,29,1.60
2013,10,02,04,30,1.60
2013,10,02,04,31,1.60
2013,10,02,04,32,3.20
2013,10,02,04,33,1.60
2013,10,02,04,34,1.60
2013,10,02,04,35,3.20
2013,10,02,04,36,3.20
2013,10,02,04,37,3.20
2013,10,02,04,38,3.20
2013,10,02,04,39,1.60
2013,10,02,04,40,1.60
2013,10,02,04,41,1.60
2013,10,02,04,42,1.60
2013,10,02,04,43,1.60
2013,10,02,04,45,1.60
2013,10,02,04,46,1.60
2013,10,02,04,48,1.60
2013,10,02,04,49,1.60
2013,10,02,04,50,1.60
2013,10,02,04,51,1.60
2013,10,02,04,52,1.60
2013,10,02,04,53,1.60
2013,10,02,04,54,1.60
2013,10,02,04,55,1.60
2013,10,02,04,57,1.60
2013,10,02,04,58,1.60
2013,10,02,04,59,3.20
2013,10,02,05,00,3.20
2013,10,02,05,01,3.20
2013,10,02,05,02,3.20
2013,10,02,05,03,1.60
2013,10,02,05,04,1.60
2013,10,02,05,05,1.60
2013,10,02,05,06,1.60
2013,10,02,05,07,1.60
2013,10,02,05,08,3.20
2013,10,02,05,09,3.20
2013,10,02,05,10,1.60
2013,10,02,05,11,1.60
2013,10,02,05,14,1.60
2013,10,02,05,15,1.60
2013,10,02,05,16,1.60
2013,10,02,05,18,1.60
2013,10,02,05,19,1.60
2013,10,02,05,20,1.60
2013,10,02,05,21,1.60
2013,10,02,05,23,1.60
2013,10,02,05,24,3.20
2013,10,02,05,25,1.60
2013,10,02,05,26,1.60
2013,10,02,05,27,1.60
2013,10,02,05,28,1.60
2013,10,02,05,29,1.60
2013,10,02,05,30,1.60
2013,10,02,05,31,1.60
2013,10,02,05,32,1.60
2013,10,02,05,33,1.60
2013,10,02,05,35,1.60
2013,10,02,05,36,1.60
2013,10,02,05,37,1.60
2013,10,02,05,38,1.60
2013,10,02,05,39,1.60
2013,10,02,05,40,1.60
2013,10,02,05,41,1.60
2013,10,02,05,43,1.60
2013,10,02,05,44,1.60
2013,10,02,05,48,1.60
2013,10,02,05,54,1.60
2013,10,02,05,55,1.60
2013,10,02,05,56,1.60
2013,10,02,05,57,1.60
2013,10,02,05,58,1.60
2013,10,02,05,59,1.60
2013,10,02,06,00,1.60
2013,10,02,06,01,1.60
2013,10,02,06,02,1.60
2013,10,02,06,08,1.60
2013,10,02,06,09,1.60
2013,10,02,06,10,1.60
2013,10,02,06,13,1.60
2013,10,02,06,15,1.60
2013,10,02,06,16,1.60
2013,10,02,06,17,1.60
2013,10,02,06,18,1.60
2013,10,02,06,19,1.60
2013,10,02,06,20,1.60
2013,10,02,06,21,1.60
2013,10,02,06,22,3.20
2013,10,02,06,23,1.60
2013,10,02,06,24,3.20
2013,10,02,06,25,3.20
2013,10,02,06,26,1.60
2013,10,02,06,27,1.60
2013,10,02,06,28,3.20
2013,10,02,06,29,3.20
2013,10,02,06,30,3.20
2013,10,02,06,31,3.20
2013,10,02,06,32,1.60
2013,10,02,06,33,1.60
2013,10,02,06,34,1.60
2013,10,02,06,35,1.60
2013,10,02,06,36,3.20
2013,10,02,06,37,3.20
2013,10,02,06,38,3.20
2013,10,02,06,39,3.20
2013,10,02,06,40,3.20
2013,10,02,06,41,3.20
2013,10,02,06,42,3.20
2013,10,02,06,43,3.20
2013,10,02,06,44,3.20
2013,10,02,06,45,4.80
2013,10,02,06,46,6.40
2013,10,02,06,47,4.80
2013,10,02,06,48,3.20
2013,10,02,06,49,4.80
2013,10,02,06,50,8.10
2013,10,02,06,51,9.60
2013,10,02,06,52,8.10
2013,10,02,06,53,6.40
2013,10,02,06,54,11.30
2013,10,02,06,55,9.60
2013,10,02,06,56,6.40
2013,10,02,06,57,8.10
2013,10,02,06,58,9.60
2013,10,02,06,59,8.10
2013,10,02,07,00,4.80
2013,10,02,07,01,6.40
2013,10,02,07,02,4.80
2013,10,02,07,03,6.40
2013,10,02,07,04,8.10
2013,10,02,07,05,6.40
2013,10,02,07,06,3.20
2013,10,02,07,07,4.80
2013,10,02,07,08,8.10
2013,10,02,07,09,6.40
2013,10,02,07,10,8.10
2013,10,02,07,11,4.80
2013,10,02,07,12,4.80
2013,10,02,07,13,4.80
2013,10,02,07,14,4.80
2013,10,02,07,15,4.80
2013,10,02,07,16,6.40
2013,10,02,07,17,3.20
2013,10,02,07,18,4.80
2013,10,02,07,19,3.20
2013,10,02,07,20,3.20
2013,10,02,07,21,4.80
2013,10,02,07,22,4.80
2013,10,02,07,23,3.20
2013,10,02,07,24,3.20
2013,10,02,07,25,4.80
2013,10,02,07,26,6.40
2013,10,02,07,27,4.80
2013,10,02,07,28,4.80
2013,10,02,07,29,4.80
2013,10,02,07,30,4.80
2013,10,02,07,31,4.80
2013,10,02,07,32,6.40
2013,10,02,07,33,4.80
2013,10,02,07,34,4.80
2013,10,02,07,35,4.80
2013,10,02,07,36,4.80
2013,10,02,07,37,3.20
2013,10,02,07,38,3.20
2013,10,02,07,39,1.60
2013,10,02,07,40,3.20
2013,10,02,07,41,3.20
2013,10,02,07,42,3.20
2013,10,02,07,43,3.20
2013,10,02,07,44,3.20
2013,10,02,07,45,3.20
2013,10,02,07,46,3.20
2013,10,02,07,47,4.80
2013,10,02,07,48,4.80
2013,10,02,07,49,4.80
2013,10,02,07,50,4.80
2013,10,02,07,51,3.20
2013,10,02,07,52,3.20
2013,10,02,07,53,3.20
2013,10,02,07,54,3.20
2013,10,02,07,55,1.60
2013,10,02,07,56,3.20
2013,10,02,07,57,1.60
2013,10,02,07,58,1.60
2013,10,02,07,59,1.60
2013,10,02,08,00,1.60
2013,10,02,08,01,3.20
2013,10,02,08,02,4.80
2013,10,02,08,03,4.80
2013,10,02,08,04,4.80
2013,10,02,08,05,4.80
2013,10,02,08,06,4.80
2013,10,02,08,07,3.20
2013,10,02,08,08,4.80
2013,10,02,08,09,4.80
2013,10,02,08,10,4.80
2013,10,02,08,11,4.80
2013,10,02,08,12,4.80
2013,10,02,08,13,6.40
2013,10,02,08,14,4.80
2013,10,02,08,15,4.80
2013,10,02,08,16,4.80
2013,10,02,08,17,6.40
2013,10,02,08,18,4.80
2013,10,02,08,19,4.80
2013,10,02,08,20,1.60
2013,10,02,08,21,3.20
2013,10,02,08,22,3.20
2013,10,02,08,23,3.20
2013,10,02,08,24,4.80
2013,10,02,08,25,3.20
2013,10,02,08,26,3.20
2013,10,02,08,27,3.20
2013,10,02,08,28,4.80
2013,10,02,08,29,4.80
2013,10,02,08,30,4.80
2013,10,02,08,31,3.20
2013,10,02,08,32,4.80
2013,10,02,08,33,4.80
2013,10,02,08,34,3.20
2013,10,02,08,35,3.20
2013,10,02,08,36,4.80
2013,10,02,08,37,3.20
2013,10,02,08,38,3.20
2013,10,02,08,39,3.20
2013,10,02,08,40,4.80
2013,10,02,08,41,3.20
2013,10,02,08,42,3.20
2013,10,02,08,43,3.20
2013,10,02,08,44,3.20
2013,10,02,08,45,4.80
2013,10,02,08,46,4.80
2013,10,02,08,47,4.80
2013,10,02,08,48,4.80
2013,10,02,08,49,4.80
2013,10,02,08,50,4.80
2013,10,02,08,51,6.40
2013,10,02,08,52,3.20
2013,10,02,08,53,3.20
2013,10,02,08,54,6.40
2013,10,02,08,55,4.80
2013,10,02,08,56,6.40
2013,10,02,08,57,4.80
2013,10,02,08,58,3.20
2013,10,02,08,59,4.80
2013,10,02,09,00,6.40
2013,10,02,09,01,6.40
2013,10,02,09,02,4.80
2013,10,02,09,03,6.40
2013,10,02,09,04,3.20
2013,10,02,09,05,4.80
2013,10,02,09,06,6.40
2013,10,02,09,07,6.40
2013,10,02,09,08,4.80
2013,10,02,09,09,4.80
2013,10,02,09,10,4.80
2013,10,02,09,11,3.20
2013,10,02,09,12,3.20
2013,10,02,09,13,3.20
2013,10,02,09,14,3.20
2013,10,02,09,15,1.60
2013,10,02,09,16,1.60
2013,10,02,09,17,1.60
2013,10,02,09,18,1.60
2013,10,02,09,19,1.60
2013,10,02,09,20,1.60
2013,10,02,09,21,1.60
2013,10,02,09,22,1.60
2013,10,02,09,23,1.60
2013,10,02,09,24,1.60
2013,10,02,09,25,3.20
2013,10,02,09,26,1.60
2013,10,02,09,27,3.20
2013,10,02,09,28,3.20
2013,10,02,09,29,1.60
2013,10,02,09,30,1.60
2013,10,02,09,31,1.60
2013,10,02,09,32,1.60
2013,10,02,09,33,1.60
2013,10,02,09,34,1.60
2013,10,02,09,35,3.20
2013,10,02,09,36,3.20
2013,10,02,09,37,3.20
2013,10,02,09,38,3.20
2013,10,02,09,39,3.20
2013,10,02,09,40,1.60
2013,10,02,09,41,3.20
2013,10,02,09,42,1.60
2013,10,02,09,43,1.60
2013,10,02,09,44,3.20
2013,10,02,09,45,4.80
2013,10,02,09,46,6.40
2013,10,02,09,47,6.40
2013,10,02,09,48,3.20
2013,10,02,09,49,4.80
2013,10,02,09,50,6.40
2013,10,02,09,51,4.80
2013,10,02,09,52,4.80
2013,10,02,09,53,4.80
2013,10,02,09,54,4.80
2013,10,02,09,55,3.20
2013,10,02,09,56,6.40
2013,10,02,09,57,4.80
2013,10,02,09,58,4.80
2013,10,02,09,59,4.80
2013,10,02,10,00,1.60
2013,10,02,10,01,4.80
2013,10,02,10,02,4.80
2013,10,02,10,03,4.80
2013,10,02,10,04,3.20
2013,10,02,10,05,3.20
2013,10,02,10,06,1.60
2013,10,02,10,07,3.20
2013,10,02,10,08,1.60
2013,10,02,10,09,3.20
2013,10,02,10,10,3.20
2013,10,02,10,11,3.20
2013,10,02,10,12,3.20
2013,10,02,10,13,3.20
2013,10,02,10,14,3.20
2013,10,02,10,15,3.20
2013,10,02,10,16,3.20
2013,10,02,10,17,1.60
2013,10,02,10,18,3.20
2013,10,02,10,19,3.20
2013,10,02,10,20,3.20
2013,10,02,10,21,3.20
2013,10,02,10,22,3.20
2013,10,02,10,23,1.60
2013,10,02,10,24,1.60
2013,10,02,10,25,1.60
2013,10,02,10,26,4.80
2013,10,02,10,27,6.40
2013,10,02,10,28,4.80
2013,10,02,10,29,6.40
2013,10,02,10,30,6.40
2013,10,02,10,31,8.10
2013,10,02,10,32,8.10
2013,10,02,10,33,6.40
2013,10,02,10,34,4.80
2013,10,02,10,35,4.80
2013,10,02,10,36,3.20
2013,10,02,10,37,3.20
2013,10,02,10,38,3.20
2013,10,02,10,39,1.60
2013,10,02,10,40,3.20
2013,10,02,10,41,1.60
2013,10,02,10,42,3.20
2013,10,02,10,43,4.80
2013,10,02,10,44,4.80
2013,10,02,10,45,6.40
2013,10,02,10,46,6.40
2013,10,02,10,47,4.80
2013,10,02,10,48,3.20
2013,10,02,10,49,1.60
2013,10,02,10,50,4.80
2013,10,02,10,51,3.20
2013,10,02,10,52,3.20
2013,10,02,10,53,3.20
2013,10,02,10,54,3.20
2013,10,02,10,55,3.20
2013,10,02,10,56,3.20
2013,10,02,10,57,6.40
2013,10,02,10,58,6.40
2013,10,02,10,59,4.80
2013,10,02,11,00,1.60
2013,10,02,11,01,1.60
2013,10,02,11,02,1.60
2013,10,02,11,03,3.20
2013,10,02,11,04,4.80
2013,10,02,11,05,4.80
2013,10,02,11,06,1.60
2013,10,02,11,07,1.60
2013,10,02,11,08,3.20
2013,10,02,11,09,3.20
2013,10,02,11,10,4.80
2013,10,02,11,11,1.60
2013,10,02,11,12,3.20
2013,10,02,11,13,4.80
2013,10,02,11,14,4.80
2013,10,02,11,15,3.20
2013,10,02,11,16,3.20
2013,10,02,11,17,6.40
2013,10,02,11,18,4.80
2013,10,02,11,19,4.80
2013,10,02,11,20,6.40
2013,10,02,11,21,6.40
2013,10,02,11,22,3.20
2013,10,02,11,23,4.80
2013,10,02,11,24,1.60
2013,10,02,11,25,4.80
2013,10,02,11,26,4.80
2013,10,02,11,27,3.20
2013,10,02,11,28,4.80
2013,10,02,11,29,4.80
2013,10,02,11,30,1.60
2013,10,02,11,31,3.20
2013,10,02,11,32,1.60
2013,10,02,11,33,3.20
2013,10,02,11,34,1.60
2013,10,02,11,35,3.20
2013,10,02,11,36,6.40
2013,10,02,11,37,4.80
2013,10,02,11,38,1.60
2013,10,02,11,39,4.80
2013,10,02,11,40,3.20
2013,10,02,11,41,4.80
2013,10,02,11,42,3.20
2013,10,02,11,43,3.20
2013,10,02,11,44,1.60
2013,10,02,11,45,3.20
2013,10,02,11,46,3.20
2013,10,02,11,47,3.20
2013,10,02,11,48,3.20
2013,10,02,11,49,1.60
2013,10,02,11,50,1.60
2013,10,02,11,51,4.80
2013,10,02,11,52,4.80
2013,10,02,11,53,3.20
2013,10,02,11,54,3.20
2013,10,02,11,55,4.80
2013,10,02,11,56,4.80
2013,10,02,11,57,4.80
2013,10,02,11,58,6.40
2013,10,02,11,59,4.80
2013,10,02,12,00,4.80
2013,10,02,12,01,4.80
2013,10,02,12,02,4.80
2013,10,02,12,03,4.80
2013,10,02,12,04,4.80
2013,10,02,12,05,4.80
2013,10,02,12,06,4.80
2013,10,02,12,07,8.10
2013,10,02,12,08,11.30
2013,10,02,12,09,8.10
2013,10,02,12,10,6.40
2013,10,02,12,11,9.60
2013,10,02,12,12,9.60
2013,10,02,12,13,6.40
2013,10,02,12,14,9.60
2013,10,02,12,15,9.60
2013,10,02,12,16,9.60
2013,10,02,12,17,8.10
2013,10,02,12,18,9.60
2013,10,02,12,19,8.10
2013,10,02,12,20,9.60
2013,10,02,12,21,8.10
2013,10,02,12,22,6.40
2013,10,02,12,23,6.40
2013,10,02,12,24,9.60
2013,10,02,12,25,8.10
2013,10,02,12,26,8.10
2013,10,02,12,27,8.10
2013,10,02,12,28,8.10
2013,10,02,12,29,8.10
2013,10,02,12,30,8.10
2013,10,02,12,31,6.40
2013,10,02,12,32,6.40
2013,10,02,12,33,8.10
2013,10,02,12,34,8.10
2013,10,02,12,35,3.20
2013,10,02,12,36,6.40
2013,10,02,12,37,4.80
2013,10,02,12,38,4.80
2013,10,02,12,39,4.80
2013,10,02,12,40,11.30
2013,10,02,12,41,9.60
2013,10,02,12,42,11.30
2013,10,02,12,43,9.60
2013,10,02,12,44,9.60
2013,10,02,12,45,8.10
2013,10,02,12,46,9.60
2013,10,02,12,47,8.10
2013,10,02,12,48,6.40
2013,10,02,12,49,9.60
2013,10,02,12,50,9.60
2013,10,02,12,51,8.10
2013,10,02,12,52,4.80
2013,10,02,12,53,4.80
2013,10,02,12,54,4.80
2013,10,02,12,55,8.10
2013,10,02,12,56,6.40
2013,10,02,12,57,4.80
2013,10,02,12,58,9.60
2013,10,02,12,59,6.40
2013,10,02,13,00,6.40
2013,10,02,13,01,11.30
2013,10,02,13,02,11.30
2013,10,02,13,03,8.10
2013,10,02,13,04,11.30
2013,10,02,13,05,9.60
2013,10,02,13,06,4.80
2013,10,02,13,07,8.10
2013,10,02,13,08,9.60
2013,10,02,13,09,12.90
2013,10,02,13,10,11.30
2013,10,02,13,11,14.50
2013,10,02,13,12,8.10
2013,10,02,13,13,8.10
2013,10,02,13,14,8.10
2013,10,02,13,15,11.30
2013,10,02,13,16,9.60
2013,10,02,13,17,11.30
2013,10,02,13,18,9.60
2013,10,02,13,19,8.10
2013,10,02,13,20,4.80
2013,10,02,13,21,8.10
2013,10,02,13,22,11.30
2013,10,02,13,23,8.10
2013,10,02,13,24,8.10
2013,10,02,13,25,8.10
2013,10,02,13,26,6.40
2013,10,02,13,27,6.40
2013,10,02,13,28,4.80
2013,10,02,13,29,4.80
2013,10,02,13,30,8.10
2013,10,02,13,31,9.60
2013,10,02,13,32,6.40
2013,10,02,13,33,11.30
2013,10,02,13,34,12.90
2013,10,02,13,35,11.30
2013,10,02,13,36,8.10
2013,10,02,13,37,4.80
2013,10,02,13,38,8.10
2013,10,02,13,39,9.60
2013,10,02,13,40,11.30
2013,10,02,13,41,12.90
2013,10,02,13,42,12.90
2013,10,02,13,43,16.10
2013,10,02,13,44,11.30
2013,10,02,13,45,14.50
2013,10,02,13,46,14.50
2013,10,02,13,47,12.90
2013,10,02,13,48,9.60
2013,10,02,13,49,6.40
2013,10,02,13,50,6.40
2013,10,02,13,51,9.60
2013,10,02,13,52,14.50
2013,10,02,13,53,4.80
2013,10,02,13,54,9.60
2013,10,02,13,55,11.30
2013,10,02,13,56,6.40
2013,10,02,13,57,11.30
2013,10,02,13,58,12.90
2013,10,02,13,59,6.40
2013,10,02,14,00,4.80
2013,10,02,14,01,4.80
2013,10,02,14,02,8.10
2013,10,02,14,03,6.40
2013,10,02,14,04,8.10
2013,10,02,14,05,6.40
2013,10,02,14,06,9.60
2013,10,02,14,07,11.30
2013,10,02,14,08,9.60
2013,10,02,14,09,6.40
2013,10,02,14,10,4.80
2013,10,02,14,11,11.30
2013,10,02,14,12,11.30
2013,10,02,14,13,6.40
2013,10,02,14,14,11.30
2013,10,02,14,15,11.30
2013,10,02,14,16,11.30
2013,10,02,14,17,6.40
2013,10,02,14,18,6.40
2013,10,02,14,19,4.80
2013,10,02,14,20,11.30
2013,10,02,14,21,12.90
2013,10,02,14,22,8.10
2013,10,02,14,23,8.10
2013,10,02,14,24,9.60
2013,10,02,14,25,9.60
2013,10,02,14,26,11.30
2013,10,02,14,27,9.60
2013,10,02,14,28,4.80
2013,10,02,14,29,8.10
2013,10,02,14,30,9.60
2013,10,02,14,31,9.60
2013,10,02,14,32,9.60
2013,10,02,14,33,9.60
2013,10,02,14,34,6.40
2013,10,02,14,35,14.50
2013,10,02,14,36,8.10
2013,10,02,14,37,11.30
2013,10,02,14,38,14.50
2013,10,02,14,39,9.60
2013,10,02,14,40,8.10
2013,10,02,14,41,8.10
2013,10,02,14,42,6.40
2013,10,02,14,43,6.40
2013,10,02,14,44,8.10
2013,10,02,14,45,4.80
2013,10,02,14,46,9.60
2013,10,02,14,47,4.80
2013,10,02,14,48,8.10
2013,10,02,14,49,9.60
2013,10,02,14,50,9.60
2013,10,02,14,51,8.10
2013,10,02,14,52,8.10
2013,10,02,14,53,9.60
2013,10,02,14,54,6.40
2013,10,02,14,55,6.40
2013,10,02,14,56,11.30
2013,10,02,14,57,8.10
2013,10,02,14,58,6.40
2013,10,02,14,59,4.80
2013,10,02,15,00,9.60
2013,10,02,15,01,8.10
2013,10,02,15,02,6.40
2013,10,02,15,03,6.40
2013,10,02,15,04,4.80
2013,10,02,15,05,6.40
2013,10,02,15,06,4.80
2013,10,02,15,07,6.40
2013,10,02,15,08,4.80
2013,10,02,15,09,4.80
2013,10,02,15,10,4.80
2013,10,02,15,11,3.20
2013,10,02,15,12,4.80
2013,10,02,15,13,3.20
2013,10,02,15,14,4.80
2013,10,02,15,15,4.80
2013,10,02,15,16,3.20
2013,10,02,15,17,8.10
2013,10,02,15,18,8.10
2013,10,02,15,19,8.10
2013,10,02,15,20,11.30
2013,10,02,15,21,8.10
2013,10,02,15,22,4.80
2013,10,02,15,23,8.10
2013,10,02,15,24,6.40
2013,10,02,15,25,6.40
2013,10,02,15,26,8.10
2013,10,02,15,27,6.40
2013,10,02,15,28,11.30
2013,10,02,15,29,6.40
2013,10,02,15,30,9.60
2013,10,02,15,31,8.10
2013,10,02,15,32,9.60
2013,10,02,15,33,8.10
2013,10,02,15,34,9.60
2013,10,02,15,35,9.60
2013,10,02,15,36,8.10
2013,10,02,15,37,6.40
2013,10,02,15,38,6.40
2013,10,02,15,39,11.30
2013,10,02,15,40,9.60
2013,10,02,15,41,8.10
2013,10,02,15,42,11.30
2013,10,02,15,43,9.60
2013,10,02,15,44,8.10
2013,10,02,15,45,9.60
2013,10,02,15,46,8.10
2013,10,02,15,47,8.10
2013,10,02,15,48,6.40
2013,10,02,15,49,4.80
2013,10,02,15,50,6.40
2013,10,02,15,51,11.30
2013,10,02,15,52,9.60
2013,10,02,15,53,14.50
2013,10,02,15,54,16.10
2013,10,02,15,55,14.50
2013,10,02,15,56,12.90
2013,10,02,15,57,14.50
2013,10,02,15,58,8.10
2013,10,02,15,59,11.30
2013,10,02,16,00,8.10
2013,10,02,16,01,6.40
2013,10,02,16,02,6.40
2013,10,02,16,03,6.40
2013,10,02,16,04,6.40
2013,10,02,16,05,6.40
2013,10,02,16,06,4.80
2013,10,02,16,07,8.10
2013,10,02,16,08,8.10
2013,10,02,16,09,8.10
2013,10,02,16,10,6.40
2013,10,02,16,11,8.10
2013,10,02,16,12,11.30
2013,10,02,16,13,11.30
2013,10,02,16,14,11.30
2013,10,02,16,15,11.30
2013,10,02,16,16,9.60
2013,10,02,16,17,6.40
2013,10,02,16,18,4.80
2013,10,02,16,19,9.60
2013,10,02,16,20,3.20
2013,10,02,16,21,8.10
2013,10,02,16,22,8.10
2013,10,02,16,23,9.60
2013,10,02,16,24,8.10
2013,10,02,16,25,8.10
2013,10,02,16,26,3.20
2013,10,02,16,27,3.20
2013,10,02,16,28,4.80
2013,10,02,16,29,4.80
2013,10,02,16,30,4.80
2013,10,02,16,31,8.10
2013,10,02,16,32,9.60
2013,10,02,16,33,9.60
2013,10,02,16,34,6.40
2013,10,02,16,35,6.40
2013,10,02,16,36,8.10
2013,10,02,16,37,8.10
2013,10,02,16,38,6.40
2013,10,02,16,39,6.40
2013,10,02,16,40,4.80
2013,10,02,16,41,3.20
2013,10,02,16,42,6.40
2013,10,02,16,43,4.80
2013,10,02,16,44,6.40
2013,10,02,16,45,6.40
2013,10,02,16,46,4.80
2013,10,02,16,47,4.80
2013,10,02,16,48,3.20
2013,10,02,16,49,4.80
2013,10,02,16,50,6.40
2013,10,02,16,51,6.40
2013,10,02,16,52,6.40
2013,10,02,16,53,6.40
2013,10,02,16,54,6.40
2013,10,02,16,55,3.20
2013,10,02,16,56,3.20
2013,10,02,16,57,4.80
2013,10,02,16,58,4.80
2013,10,02,16,59,4.80
2013,10,02,17,00,1.60
2013,10,02,17,01,4.80
2013,10,02,17,02,4.80
2013,10,02,17,03,3.20
2013,10,02,17,04,3.20
2013,10,02,17,05,6.40
2013,10,02,17,06,6.40
2013,10,02,17,07,4.80
2013,10,02,17,08,3.20
2013,10,02,17,09,6.40
2013,10,02,17,10,6.40
2013,10,02,17,11,1.60
2013,10,02,17,12,1.60
2013,10,02,17,13,3.20
2013,10,02,17,14,3.20
2013,10,02,17,15,4.80
2013,10,02,17,16,3.20
2013,10,02,17,17,1.60
2013,10,02,17,18,3.20
2013,10,02,17,19,1.60
2013,10,02,17,20,1.60
2013,10,02,17,21,4.80
2013,10,02,17,22,4.80
2013,10,02,17,23,3.20
2013,10,02,17,24,3.20
2013,10,02,17,25,3.20
2013,10,02,17,26,1.60
2013,10,02,17,27,3.20
2013,10,02,17,28,3.20
2013,10,02,17,29,1.60
2013,10,02,17,30,1.60
2013,10,02,17,31,1.60
2013,10,02,17,35,1.60
2013,10,02,17,36,1.60
2013,10,02,17,37,1.60
2013,10,02,17,38,3.20
2013,10,02,17,39,1.60
2013,10,02,17,40,3.20
2013,10,02,17,41,3.20
2013,10,02,17,42,3.20
2013,10,02,17,43,3.20
2013,10,02,17,44,3.20
2013,10,02,17,45,3.20
2013,10,02,17,46,4.80
2013,10,02,17,47,4.80
2013,10,02,17,48,4.80
2013,10,02,17,49,3.20
2013,10,02,17,50,1.60
2013,10,02,17,51,1.60
2013,10,02,17,52,3.20
2013,10,02,17,53,3.20
2013,10,02,17,54,1.60
2013,10,02,17,55,1.60
2013,10,02,17,56,1.60
2013,10,02,17,57,3.20
2013,10,02,17,58,3.20
2013,10,02,17,59,3.20
2013,10,02,18,00,3.20
2013,10,02,18,01,1.60
2013,10,02,18,02,1.60
2013,10,02,18,03,1.60
2013,10,02,18,04,3.20
2013,10,02,18,05,4.80
2013,10,02,18,06,3.20
2013,10,02,18,07,3.20
2013,10,02,18,08,3.20
2013,10,02,18,09,3.20
2013,10,02,18,10,1.60
2013,10,02,18,11,1.60
2013,10,02,18,12,1.60
2013,10,02,18,13,1.60
2013,10,02,18,14,1.60
2013,10,02,18,15,1.60
2013,10,02,18,16,1.60
2013,10,02,18,17,1.60
2013,10,02,18,18,3.20
2013,10,02,18,19,1.60
2013,10,02,18,20,1.60
2013,10,02,18,21,1.60
2013,10,02,18,22,1.60
2013,10,02,18,23,1.60
2013,10,02,18,24,3.20
2013,10,02,18,25,3.20
2013,10,02,18,26,3.20
2013,10,02,18,27,3.20
2013,10,02,18,28,4.80
2013,10,02,18,29,3.20
2013,10,02,18,30,3.20
2013,10,02,18,31,3.20
2013,10,02,18,32,3.20
2013,10,02,18,33,3.20
2013,10,02,18,34,3.20
2013,10,02,18,35,3.20
2013,10,02,18,36,3.20
2013,10,02,18,37,1.60
2013,10,02,18,38,3.20
2013,10,02,18,39,1.60
2013,10,02,18,40,3.20
2013,10,02,18,41,3.20
2013,10,02,18,42,3.20
2013,10,02,18,43,1.60
2013,10,02,18,44,1.60
2013,10,02,18,45,1.60
2013,10,02,18,46,1.60
2013,10,02,18,47,1.60
2013,10,02,18,48,1.60
2013,10,02,18,49,3.20
2013,10,02,18,50,3.20
2013,10,02,18,51,3.20
2013,10,02,18,52,1.60
2013,10,02,18,53,1.60
2013,10,02,18,54,1.60
2013,10,02,18,55,1.60
2013,10,02,18,56,1.60
2013,10,02,18,57,1.60
2013,10,02,18,58,1.60
2013,10,02,18,59,1.60
2013,10,02,19,00,1.60
2013,10,02,19,01,1.60
2013,10,02,19,04,1.60
2013,10,02,19,05,1.60
2013,10,02,19,06,1.60
2013,10,02,19,07,1.60
2013,10,02,19,08,3.20
2013,10,02,19,09,1.60
2013,10,02,19,10,1.60
2013,10,02,19,11,1.60
2013,10,02,19,12,1.60
2013,10,02,19,13,1.60